| time (UTC) | temp F | wind direction | speed knots | gust knots | rain 1hr in | rain 24hr in | rain mn in | humidity % | barometer mb |
| 20260831193008 | 68 | 281 | 5.2 | 13.0 | 0.00 | 0.00 | 0.00 | 26 | 1005.0 |
| 20260831191504 | 68 | 320 | 5.2 | 13.0 | 0.00 | 0.00 | 0.00 | 26 | 1005.0 |
| 20260831190004 | 69 | 309 | 1.7 | 11.3 | 0.00 | 0.00 | 0.00 | 26 | 1005.1 |
| 20260831184504 | 69 | 237 | 0.9 | 5.2 | 0.00 | 0.00 | 0.00 | 26 | 1005.2 |
| 20260831183006 | 68 | 256 | 3.5 | 7.8 | 0.00 | 0.00 | 0.00 | 25 | 1005.2 |
| 20260831181502 | 68 | 300 | 1.7 | 7.0 | 0.00 | 0.00 | 0.00 | 27 | 1005.2 |
| 20260831180001 | 68 | 287 | 1.7 | 8.7 | 0.00 | 0.00 | 0.00 | 26 | 1005.1 |
| 20260831174603 | 68 | 305 | 1.7 | 6.1 | 0.00 | 0.00 | 0.00 | 25 | 1005.0 |
| 20260831173128 | 67 | 199 | 1.7 | 6.1 | 0.00 | 0.00 | 0.00 | 28 | 1005.0 |
| 20260831171557 | 66 | 182 | 0.9 | 8.7 | 0.00 | 0.00 | 0.00 | 28 | 1005.0 |
| 20260831170056 | 66 | 26 | 0.0 | 4.3 | 0.00 | 0.00 | 0.00 | 28 | 1004.9 |
| 20260831164606 | 65 | 90 | 1.7 | 6.1 | 0.00 | 0.00 | 0.00 | 31 | 1004.9 |
| 20260831163056 | 64 | 82 | 3.5 | 7.0 | 0.00 | 0.00 | 0.00 | 31 | 1004.8 |
| 20260831161553 | 64 | 76 | 2.6 | 5.2 | 0.00 | 0.00 | 0.00 | 32 | 1005.0 |
| 20260831160100 | 65 | 28 | 0.9 | 3.5 | 0.00 | 0.00 | 0.00 | 27 | 1005.1 |
| 20260831154548 | 63 | 132 | 0.0 | 4.3 | 0.00 | 0.00 | 0.00 | 30 | 1005.2 |
| 20260831153047 | 62 | 280 | 0.9 | 3.5 | 0.00 | 0.00 | 0.00 | 29 | 1005.2 |
| 20260831151545 | 60 | 269 | 0.9 | 7.0 | 0.00 | 0.00 | 0.00 | 31 | 1005.1 |
| 20260831150041 | 59 | 344 | 0.9 | 10.4 | 0.00 | 0.00 | 0.00 | 33 | 1005.1 |
| 20260831144537 | 57 | 30 | 3.5 | 8.7 | 0.00 | 0.00 | 0.00 | 35 | 1005.0 |
| 20260831143035 | 56 | 250 | 2.6 | 13.0 | 0.00 | 0.00 | 0.00 | 37 | 1004.9 |
| 20260831141533 | 55 | 254 | 4.3 | 9.6 | 0.00 | 0.00 | 0.00 | 39 | 1004.7 |
| 20260831140031 | 0 | 0.0 | 0.0 | 0.00 | 0.00 | 0.00 | 1004.2 | ||
| 20260831134528 | 0 | 0.0 | 0.0 | 0.00 | 0.00 | 0.00 | 1004.2 | ||
| 20260831133033 | 0 | 0.0 | 0.0 | 0.00 | 0.00 | 0.00 | 1004.1 | ||
| 20260831131519 | 0 | 0.0 | 0.0 | 0.00 | 0.00 | 0.00 | 1004.1 | ||
| 20260831130017 | 0 | 0.0 | 0.0 | 0.00 | 0.00 | 0.00 | 1004.2 | ||
| 20260831124533 | 0 | 0.0 | 0.0 | 0.00 | 0.00 | 0.00 | 1004.3 | ||
| 20260831123007 | 0 | 0.0 | 0.0 | 0.00 | 0.00 | 0.00 | 1004.4 | ||
| 20260831121503 | 0 | 0.0 | 0.0 | 0.00 | 0.00 | 0.00 | 1004.7 | ||
| 20260831120100 | 0 | 0.0 | 0.0 | 0.00 | 0.00 | 0.00 | 1005.0 | ||
| 20260831114558 | 54 | 183 | 0.9 | 10.4 | 0.00 | 0.00 | 0.00 | 41 | 1005.2 |
| 20260831113059 | 55 | 280 | 3.5 | 12.2 | 0.00 | 0.00 | 0.00 | 40 | 1005.2 |
| 20260831111612 | 55 | 272 | 3.5 | 9.6 | 0.00 | 0.00 | 0.00 | 40 | 1005.3 |
| 20260831110056 | 55 | 261 | 1.7 | 8.7 | 0.00 | 0.00 | 0.00 | 40 | 1005.4 |
| 20260831104605 | 54 | 268 | 1.7 | 8.7 | 0.00 | 0.00 | 0.00 | 40 | 1005.5 |
| 20260831103059 | 53 | 246 | 0.9 | 7.8 | 0.00 | 0.00 | 0.00 | 42 | 1005.5 |
| 20260831101555 | 47 | 271 | 0.0 | 2.6 | 0.00 | 0.00 | 0.00 | 56 | 1005.4 |
| 20260831100048 | 47 | 51 | 0.0 | 0.0 | 0.00 | 0.00 | 0.00 | 54 | 1005.5 |
| 20260831094603 | 47 | 277 | 0.0 | 2.6 | 0.00 | 0.00 | 0.00 | 59 | 1005.5 |
| 20260831093051 | 47 | 280 | 0.0 | 0.9 | 0.00 | 0.00 | 0.00 | 58 | 1005.6 |
| 20260831091549 | 48 | 275 | 0.0 | 1.7 | 0.00 | 0.00 | 0.00 | 56 | 1005.5 |
| 20260831090044 | 48 | 280 | 0.0 | 0.9 | 0.00 | 0.00 | 0.00 | 56 | 1005.6 |
| 20260831084541 | 49 | 279 | 0.0 | 0.9 | 0.00 | 0.00 | 0.00 | 53 | 1005.7 |
| 20260831083045 | 50 | 284 | 0.0 | 0.0 | 0.00 | 0.00 | 0.00 | 52 | 1005.7 |
| 20260831081537 | 50 | 282 | 0.0 | 0.9 | 0.00 | 0.00 | 0.00 | 51 | 1005.8 |
| 20260831080034 | 50 | 280 | 0.0 | 1.7 | 0.00 | 0.00 | 0.00 | 51 | 1005.9 |
| 20260831074537 | 52 | 280 | 0.0 | 0.9 | 0.00 | 0.00 | 0.00 | 46 | 1006.1 |
| 20260831073032 | 53 | 280 | 0.0 | 1.7 | 0.00 | 0.00 | 0.00 | 43 | 1006.1 |
| 20260831071530 | 55 | 275 | 0.0 | 0.9 | 0.00 | 0.00 | 0.00 | 41 | 1006.3 |
| 20260831070031 | 56 | 34 | 0.0 | 4.3 | 0.00 | 0.00 | 0.00 | 38 | 1006.2 |
| 20260831064530 | 57 | 226 | 0.9 | 7.8 | 0.00 | 0.00 | 0.00 | 38 | 1006.1 |
| 20260831063027 | 57 | 284 | 0.9 | 7.0 | 0.00 | 0.00 | 0.00 | 38 | 1006.1 |
| 20260831061527 | 58 | 298 | 1.7 | 14.8 | 0.00 | 0.00 | 0.00 | 37 | 1006.0 |
| 20260831060027 | 58 | 248 | 1.7 | 7.8 | 0.00 | 0.00 | 0.00 | 36 | 1006.2 |
| 20260831054529 | 58 | 267 | 0.9 | 6.1 | 0.00 | 0.00 | 0.00 | 36 | 1006.3 |
| 20260831053029 | 58 | 264 | 0.9 | 7.0 | 0.00 | 0.00 | 0.00 | 35 | 1006.5 |
| 20260831051533 | 58 | 230 | 2.6 | 13.0 | 0.00 | 0.00 | 0.00 | 34 | 1006.5 |
| 20260831050042 | 58 | 261 | 4.3 | 13.0 | 0.00 | 0.00 | 0.00 | 32 | 1006.4 |
| 20260831044525 | 58 | 218 | 6.1 | 13.9 | 0.00 | 0.00 | 0.00 | 32 | 1006.3 |
| 20260831043025 | 58 | 232 | 5.2 | 13.0 | 0.00 | 0.00 | 0.00 | 28 | 1006.2 |
| 20260831041525 | 57 | 39 | 6.1 | 13.0 | 0.00 | 0.00 | 0.00 | 27 | 1006.2 |
| 20260831040026 | 57 | 246 | 1.7 | 7.8 | 0.00 | 0.00 | 0.00 | 27 | 1006.0 |
| 20260831034524 | 58 | 263 | 6.1 | 16.5 | 0.00 | 0.00 | 0.00 | 26 | 1005.9 |
| 20260831033024 | 58 | 307 | 4.3 | 15.6 | 0.00 | 0.00 | 0.00 | 28 | 1005.8 |
| 20260831031527 | 58 | 268 | 5.2 | 14.8 | 0.00 | 0.00 | 0.00 | 30 | 1005.7 |
| 20260831030023 | 58 | 282 | 2.6 | 9.6 | 0.00 | 0.00 | 0.00 | 32 | 1005.6 |
| 20260831024524 | 58 | 296 | 2.6 | 11.3 | 0.00 | 0.00 | 0.00 | 31 | 1005.6 |
| 20260831023022 | 59 | 223 | 3.5 | 11.3 | 0.00 | 0.00 | 0.00 | 29 | 1005.4 |
| 20260831021522 | 60 | 199 | 3.5 | 17.4 | 0.00 | 0.00 | 0.00 | 32 | 1005.4 |
| 20260831020024 | 60 | 92 | 2.6 | 17.4 | 0.00 | 0.00 | 0.00 | 34 | 1005.5 |
| 20260831014521 | 61 | 273 | 2.6 | 12.2 | 0.00 | 0.00 | 0.00 | 34 | 1005.4 |
| 20260831013021 | 63 | 214 | 2.6 | 13.0 | 0.00 | 0.00 | 0.00 | 31 | 1005.5 |
| 20260831011521 | 65 | 265 | 3.5 | 8.7 | 0.00 | 0.00 | 0.00 | 29 | 1005.6 |
| 20260831010030 | 66 | 185 | 2.6 | 12.2 | 0.00 | 0.00 | 0.00 | 29 | 1005.6 |
| 20260831004520 | 67 | 241 | 3.5 | 14.8 | 0.00 | 0.00 | 0.00 | 30 | 1005.6 |
| 20260831003020 | 67 | 220 | 1.7 | 10.4 | 0.00 | 0.00 | 0.00 | 30 | 1005.6 |
| 20260831001532 | 68 | 192 | 2.6 | 8.7 | 0.00 | 0.00 | 0.00 | 29 | 1005.5 |
| 20260831000019 | 68 | 206 | 2.6 | 12.2 | 0.00 | 0.00 | 0.00 | 29 | 1005.7 |
| 20260830234535 | 69 | 258 | 4.3 | 12.2 | 0.00 | 0.00 | 0.00 | 28 | 1005.7 |
| 20260830233021 | 69 | 296 | 5.2 | 12.2 | 0.00 | 0.00 | 0.00 | 27 | 1005.7 |
| 20260830231517 | 69 | 209 | 3.5 | 11.3 | 0.00 | 0.00 | 0.00 | 27 | 1005.9 |
| 20260830230029 | 69 | 246 | 2.6 | 10.4 | 0.00 | 0.00 | 0.00 | 27 | 1006.0 |
| 20260830224523 | 69 | 287 | 3.5 | 13.9 | 0.00 | 0.00 | 0.00 | 27 | 1006.2 |
| 20260830223018 | 69 | 298 | 6.1 | 13.9 | 0.00 | 0.00 | 0.00 | 24 | 1006.4 |
| 20260830221509 | 70 | 243 | 2.6 | 13.9 | 0.00 | 0.00 | 0.00 | 24 | 1006.8 |
| 20260830220023 | 70 | 294 | 4.3 | 12.2 | 0.00 | 0.00 | 0.00 | 21 | 1007.0 |
| 20260830214508 | 70 | 277 | 1.7 | 16.5 | 0.00 | 0.00 | 0.00 | 22 | 1007.2 |
| 20260830213008 | 69 | 280 | 3.5 | 16.5 | 0.00 | 0.00 | 0.00 | 20 | 1007.2 |
| 20260830211507 | 71 | 265 | 2.6 | 15.6 | 0.00 | 0.00 | 0.00 | 19 | 1007.4 |
| 20260830210006 | 71 | 199 | 2.6 | 12.2 | 0.00 | 0.00 | 0.00 | 17 | 1007.5 |
| 20260830204510 | 71 | 275 | 3.5 | 11.3 | 0.00 | 0.00 | 0.00 | 16 | 1007.6 |
| 20260830203007 | 71 | 199 | 3.5 | 8.7 | 0.00 | 0.00 | 0.00 | 16 | 1007.8 |
| 20260830201519 | 70 | 276 | 3.5 | 12.2 | 0.00 | 0.00 | 0.00 | 15 | 1007.7 |
| 20260830200006 | 71 | 271 | 3.5 | 9.6 | 0.00 | 0.00 | 0.00 | 16 | 1007.7 |
| 20260830194505 | 72 | 303 | 1.7 | 6.1 | 0.00 | 0.00 | 0.00 | 15 | 1007.8 |